Regional Weather Roundup
Issued by NWS

Home | Current Version | Previous Version | Text Only | Print | Product List | Glossary Off
Versions: 1 2 3 4 5 6 7 8 9 10 11 12 13 14 15 16 17 18 19 20 21 22 23 24 25 26 27 28 29 30 31 32 33 34 35 36 37 38 39 40 41 42 43 44 45 46 47 48 49 50

229
ASUS45 KCYS 210310
RWRWY

WYOMING REGIONAL WEATHER ROUNDUP
NATIONAL WEATHER SERVICE CHEYENNE WY
800 PM MST MON FEB 20 2017

NOTE:  "FAIR" INDICATES FEW OR NO CLOUDS BELOW 12,000 FEET
WITH NO SIGNIFICANT WEATHER AND/OR OBSTRUCTIONS TO VISIBILITY.

WYZ001-210400-
YELLOWSTONE NATIONAL PARK

CITY           SKY/WX    TMP DP  RH WIND       PRES   REMARKS
LK YELLOWSTONE   N/A     31  31 100 VRB6      29.89R WCI  25
W YELLOWSTONE  NOT AVBL

$$
WYZ002>013-054>058-071-098>099-210400-
NORTHERN WYOMING

CITY           SKY/WX    TMP DP  RH WIND       PRES   REMARKS
JACKSON        LGT SNOW  34  32  93 SW10      29.94S WCI  26
CODY           FAIR      44  30  57 SW7       29.81S
GREYBULL       FAIR      44  31  60 E7        29.79R
WORLAND        FAIR      46  32  58 S22       29.79S
SHERIDAN       FAIR      54  26  34 SE16      29.70F
BUFFALO        FAIR      53  24  32 S12G18    29.75S
GILLETTE       FAIR      51  29  42 SW22G29   29.76F
HULETT         FAIR      52  28  40 SW14G21   29.77S
NEWCASTLE      FAIR      46  30  53 SE9       29.86S

$$
WYZ014>020-022>026-101>103-210400-
CENTRAL WYOMING

CITY           SKY/WX    TMP DP  RH WIND       PRES   REMARKS
BIG PINEY      CLOUDY    31  29  92 S9        30.01S WCI  23
PINEDALE       FLURRIES  32  32 100 SE12      30.02F WCI  23
DUBOIS         CLOUDY    34  28  80 NW10G16   29.90S WCI  26
LANDER         CLOUDY    45  29  53 E17       29.88S
RIVERTON       FAIR      43  29  57 S13       29.90F
CASPER         FAIR      45  30  55 SW25G36   29.94R
DOUGLAS        FAIR      47  26  44 VRB5      29.91R

$$
WYZ021-027>030-104>119-210400-
SOUTHERN WYOMING

CITY           SKY/WX    TMP DP  RH WIND       PRES   REMARKS
EVANSTON       LGT RAIN  37  29  72 SW22      30.00S WCI  26
KEMMERER         N/A     36  30  80 SW16      30.00F WCI  26
FORT BRIDGER   CLOUDY    38  31  76 CALM      30.04S
ROCK SPRINGS   CLOUDY    40  28  62 SW14      30.01F WCI  32
DIXON            N/A     42  29  60 SW12G20   30.13S
RAWLINS        FAIR      40  27  59 SW23G37   30.03F WCI  30
SARATOGA       FAIR      37  25  60 SE15G21   30.06S WCI  28
LARAMIE        FAIR      38  20  48 SW21      30.02F WCI  28
CHEYENNE       FAIR      45  17  32 S9        29.99F
TORRINGTON     FAIR      48  22  35 SE7       29.92F
PINE BLUFFS    FAIR      41  18  38 S7        29.98F

$$




USA.gov is the U.S. government's official web portal to all federal, state and local government web resources and services.